Regional Weather Roundup
Issued by NWS

Home | Current Version | Previous Version | Text Only | Print | Product List | Glossary On
Versions: 1 2 3 4 5 6 7 8 9 10 11 12 13 14 15 16 17 18 19 20 21 22 23 24 25 26 27 28 29 30 31 32 33 34 35 36 37 38 39 40 41 42 43 44 45 46 47 48 49 50
000
ASUS42 KFFC 200303
RWRGA
WEATHER ROUNDUP FOR GEORGIA
NATIONAL WEATHER SERVICE PEACHTREE CITY GA
1100 PM EDT FRI SEP 19 2014

NOTE: "FAIR" INDICATES FEW OR NO CLOUDS BELOW 12,000 FEET WITH NO
SIGNIFICANT WEATHER AND/OR OBSTRUCTIONS TO VISIBILITY.

* = USE WITH CAUTION. THE STATIONS MARKED WITH AN ASTERISK MAY NOT
REPORT WEATHER SUCH AS PRECIPITATION, FOG, OR THUNDER AND ARE NOT
QUALITY CONTROLLED BY NWS.

THE REMARK "TC" DENOTES TEMPERATURE READING IN DEGREES CELSIUS.

GAZ001>058-200400-
NORTH GEORGIA

CITY           SKY/WX    TMP DP  RH WIND       PRES   REMARKS
ATLANTA        PTCLDY    72  65  78 E14       30.14R
ATHENS         CLEAR     69  64  84 NE6       30.16R
CHAMBLEE       CLEAR     71  64  78 VRB6      30.15R
PEACHTREE CITY CLEAR     73  65  75 E8        30.13R
ROME           CLEAR     72  64  76 E8        30.12R
WEST ATLANTA   CLEAR     73  65  75 E9        30.13R
GAINESVILLE    MOCLDY    69  60  73 E9        30.20R
CARTERSVILLE   CLEAR     72  63  73 E7        30.14R


CITY           SKY/WX    TMP DP  RH WIND       PRES   REMARKS
DALTON*        CLEAR     72  63  73 SE15      30.14R
KENNESAW*      CLEAR     72  63  73 E8        30.16R
$$

GAZ059>098-102>109-200400-
CENTRAL GEORGIA

CITY           SKY/WX    TMP DP  RH WIND       PRES   REMARKS
AUGUSTA-BUSH   CLEAR     68  65  90 NE3       30.12R
AUGUSTA-DANIEL CLEAR     71  66  84 NE9       30.14R
COLUMBUS       CLEAR     73  65  75 E5        30.07R
MACON          CLEAR     69  67  93 E5        30.10R
ROBINS AFB     CLEAR     72  67  84 E3        30.09R


CITY           SKY/WX    TMP DP  RH WIND       PRES   REMARKS
LAGRANGE*      CLEAR     76  69  78 E3        30.10R
SYLVANIA*      PTCLDY    73  70  91 NE3       30.11S
MILLEDGEVILLE* CLEAR     72  68  88 E7        30.12R
$$

GAZ099>101-110>166-200400-
SOUTH GEORGIA

CITY           SKY/WX    TMP DP  RH WIND       PRES   REMARKS
SAVANNAH       CLOUDY    73  67  81 NE9       30.08R
VALDOSTA       PTCLDY    71  68  90 NE6       30.03S
ALMA           PTCLDY    72  69  90 VRB3      30.05S
ST SIMONS      CLOUDY    77  70  79 E10       30.03R
FT STEWART     CLOUDY    71  68  90 N2        30.06F
ALBANY         PTCLDY    71  69  93 E3        30.07S
HUNTER AFB     CLOUDY    72  70  95 NE6       30.05S
MOODY AFB      PTCLDY    70  68  94 NE6       30.03S
BRUNSWICK      CLOUDY    73  70  88 N3        30.05S


CITY           SKY/WX    TMP DP  RH WIND       PRES   REMARKS
BAINBRIDGE*    PTCLDY    73  68  83 E7        30.03F
MOULTRIE*      PTCLDY    72  70  94 CALM      30.06R
VIDALIA*       MOCLDY    70  70 100 E9        30.09S
WAYCROSS*      PTCLDY    75  73  96 NE6       30.04R
DOUGLAS*       PTCLDY    73  70  88 NE7       30.06S
$$



USA.gov is the U.S. government's official web portal to all federal, state and local government web resources and services.